Weather History for Oakland, CA

Change the Weather History Date:

Saturday, June 29, 2013

  Actual Average Record
Temperature  
Mean Temperature 72 °F 63 °F  
Max Temperature 86 °F 71 °F 91 °F (1950)
Min Temperature 58 °F 55 °F 48 °F (1955)
Degree Days  
Heating Degree Days 0 3  
Month to date heating degree days 60 103  
Since 1 June heating degree days 60 103  
Since 1 July heating degree days 2431 2873  
Cooling Degree Days 7 1  
Month to date cooling degree days 32 18  
Year to date cooling degree days 73 34  
Since 1 June cooling degree days 32 18  
Growing Degree Days 20 (Base 50)    
Moisture  
Dew Point 60 °F    
Average Humidity 70    
Maximum Humidity 100    
Minimum Humidity 40    
Precipitation  
Precipitation 0.00 in 0.00 in 0.12 in (1982)
Month to date precipitation 0.17 0.18  
Year to date precipitation 2.82 13.22  
Since 1 July precipitation 13.81 20.81  
Sea Level Pressure  
Sea Level Pressure 29.89 in    
Wind  
Wind Speed 8 mph (WNW)    
Max Wind Speed 20 mph    
Max Gust Speed 22 mph    
Visibility 10 miles    
Events      
T = Trace of Precipitation, MM = Missing Value Source: NWS Daily Summary

Daily Weather History Graph

Daily Weather History Graph

Search for Another Location

Airport:

Trip Planner

Search our weather history database for the weather conditions in past years. The results will help you decide how hot, cold, wet, or windy it might be!

Date:

Astronomy

Jun. 29, 2013 Rise Set
Actual Time 5:50 AM PDT 8:34 PM PDT
Civil Twilight 5:18 AM PDT 9:05 PM PDT
Nautical Twilight 4:39 AM PDT 9:44 PM PDT
Astronomical Twilight 3:55 AM PDT 10:28 PM PDT
Moon 12:14 AM PDT (6/29) 12:58 PM PDT (6/29)
Length of Visible Light 15h 46m
Length of Day
14h 44m
Waning Gibbous, 54% of the Moon is Illuminated
Jun 29
Waning Gibbous
Jun 29
Last Quarter
Jul 8
New
Jul 15
First Quarter
Jul 22
Full

Hourly Weather History & Observations

Time (PDT) Temp. Heat Index Dew Point Humidity Pressure Visibility Wind Dir Wind Speed Gust Speed Precip Events Conditions
12:53 AM 66.0 °F - 62.1 °F 87% 29.94 in 10.0 mi NW 3.5 mph - N/A   Partly Cloudy
1:53 AM 63.0 °F - 60.1 °F 90% 29.92 in 10.0 mi Calm Calm - N/A   Partly Cloudy
2:53 AM 66.0 °F - 62.1 °F 87% 29.92 in 10.0 mi Calm Calm - N/A   Partly Cloudy
3:53 AM 66.0 °F - 62.1 °F 87% 29.91 in 10.0 mi Calm Calm - N/A   Partly Cloudy
4:53 AM 63.0 °F - 62.1 °F 97% 29.91 in 10.0 mi WNW 6.9 mph - N/A   Partly Cloudy
5:53 AM 57.9 °F - 57.9 °F 100% 29.92 in 10.0 mi Calm Calm - N/A   Partly Cloudy
6:53 AM 64.0 °F - 62.1 °F 93% 29.91 in 10.0 mi Calm Calm - N/A   Partly Cloudy
7:53 AM 69.1 °F - 64.0 °F 84% 29.92 in 10.0 mi WNW 6.9 mph - N/A   Clear
8:53 AM 71.1 °F - 61.0 °F 70% 29.92 in 10.0 mi Calm Calm - N/A   Clear
9:53 AM 73.9 °F - 57.9 °F 57% 29.92 in 10.0 mi SW 3.5 mph - N/A   Clear
10:53 AM 77.0 °F - 57.9 °F 52% 29.91 in 10.0 mi West 5.8 mph - N/A   Clear
11:53 AM 82.0 °F 81.7 °F 57.0 °F 42% 29.91 in 10.0 mi West 6.9 mph - N/A   Clear
12:53 PM 84.9 °F 83.9 °F 57.0 °F 38% 29.89 in 10.0 mi WNW 11.5 mph - N/A   Clear
1:53 PM 82.9 °F 82.6 °F 57.9 °F 42% 29.88 in 10.0 mi WNW 17.3 mph - N/A   Clear
2:53 PM 81.0 °F 81.1 °F 57.9 °F 45% 29.87 in 10.0 mi NW 13.8 mph - N/A   Clear
3:53 PM 81.0 °F 81.1 °F 57.9 °F 45% 29.86 in 10.0 mi WNW 16.1 mph - N/A   Partly Cloudy
4:53 PM 79.0 °F - 59.0 °F 50% 29.84 in 10.0 mi WNW 16.1 mph - N/A   Partly Cloudy
5:53 PM 77.0 °F - 59.0 °F 54% 29.83 in 10.0 mi WNW 13.8 mph - N/A   Partly Cloudy
6:53 PM 75.0 °F - 59.0 °F 57% 29.82 in 10.0 mi West 11.5 mph - N/A   Partly Cloudy
7:53 PM 72.0 °F - 60.1 °F 66% 29.82 in 10.0 mi WNW 12.7 mph - N/A   Partly Cloudy
8:53 PM 70.0 °F - 62.1 °F 76% 29.84 in 10.0 mi WNW 11.5 mph - N/A   Clear
9:53 PM 69.1 °F - 61.0 °F 75% 29.86 in 10.0 mi WNW 10.4 mph - N/A   Clear
10:53 PM 68.0 °F - 62.1 °F 81% 29.86 in 10.0 mi West 11.5 mph - N/A   Clear
11:53 PM 66.9 °F - 62.1 °F 84% 29.86 in 10.0 mi WNW 8.1 mph - N/A   Clear